Flag for U.S.A. Weather past 2 weeks in Lexington, Virginia, U.S.A.

49 °F

Partly sunny.

Feels Like: 49 °F
Forecast: 32 / 58 °F
Wind: No wind

Location: Hot Springs / Ingalls

Current Time: Nov 26, 2015 at 1:46:46 PM

Latest Report: Nov 26, 2015 at 1:15 PM

Visibility: 10 mi

Pressure: 30.67 "Hg

Humidity: 79%

Dew point: 42 °F

Location of LexingtonLocation

Historic Weather in Lexington — Graph


Lexington temperature yesterday

Maximum temperature yesterday: 45 °F (at 1:55 PM)
Minimum temperature yesterday: 35 °F (at 5:55 AM)
Average temperature yesterday: 39 °F

Past Weeks' High & Low Weather Summary

High62 °F (Nov 19, 1:35 PM)100% (Nov 17, 11:55 PM)30.72 "Hg (Nov 17, 11:55 PM)
Low18 °F (Nov 23, 7:15 AM)15% (Nov 11, 9:35 PM)29.70 "Hg (Nov 12, 1:35 PM)
Average42 °F57%30.16 "Hg
* Reported Nov 11 12:15 PM — Nov 26 12:35 PM, Lexington, Weather by CustomWeather, © 2015

Note: Actual official high and low records may vary slightly from our data, if they occured in-between our weather recording intervals... More about our weather records


Lexington weather history for previous 24 hours

Time TempWeatherWind HumidityBarometerVisibility
12:35 PM
Thu, Nov 26
48 °FLow clouds.6 mph90%30.69 "Hg10 mi
12:15 PM47 °FLow clouds.6 mph96%30.69 "Hg10 mi
11:55 AM47 °FLow clouds.10 mph99%30.70 "Hg10 mi
11:35 AM46 °FLow clouds.10 mph100%30.71 "Hg10 mi
11:15 AM44 °FLight rain. Low clouds.8 mph100%30.71 "Hg1 mi
10:55 AM43 °FLight rain. Low clouds.7 mph100%30.72 "Hg1 mi
10:35 AM44 °FFog.3 mph100%30.72 "Hg2 mi
10:15 AM45 °FPartly sunny.5 mph75%30.72 "Hg10 mi
9:55 AM46 °FLow clouds.10 mph78%30.72 "Hg10 mi
9:35 AM45 °FLow clouds.10 mph82%30.71 "Hg10 mi
9:15 AM45 °FPartly sunny.8 mph80%30.71 "Hg10 mi
8:55 AM45 °FPartly sunny.8 mph79%30.70 "Hg10 mi
8:15 AM45 °FScattered clouds.8 mph77%30.70 "Hg10 mi
7:55 AM44 °FPartly sunny.8 mph80%30.69 "Hg10 mi
7:35 AM43 °FPartly sunny.9 mph84%30.69 "Hg10 mi
7:15 AM42 °FScattered clouds.6 mph95%30.70 "Hg10 mi
6:35 AM43 °FOvercast.9 mph86%30.68 "Hg10 mi
6:15 AM43 °FOvercast.10 mph84%30.68 "Hg10 mi
5:55 AM42 °FOvercast.8 mph90%30.67 "Hg10 mi
5:35 AM41 °FOvercast.8 mph83%30.67 "Hg10 mi
5:15 AM39 °FOvercast.9 mph84%30.67 "Hg10 mi
4:55 AM39 °FOvercast.6 mph84%30.67 "Hg10 mi
4:35 AM38 °FOvercast.8 mph83%30.64 "Hg10 mi
4:15 AM38 °FOvercast.7 mph81%30.64 "Hg10 mi
3:55 AM38 °FOvercast.10 mph81%30.64 "Hg10 mi
3:35 AM38 °FOvercast.7 mph78%30.65 "Hg10 mi
3:15 AM38 °FOvercast.13 mph78%30.64 "Hg10 mi
2:55 AM38 °FPassing clouds.12 mph79%30.64 "Hg10 mi
2:35 AM38 °FPassing clouds.10 mph73%30.64 "Hg10 mi
2:15 AM38 °FPassing clouds.10 mph71%30.63 "Hg10 mi
1:15 AM38 °FPassing clouds.7 mph68%30.63 "Hg10 mi
12:55 AM38 °FClear.10 mph68%30.63 "Hg10 mi
12:35 AM38 °FClear.8 mph66%30.63 "Hg10 mi
12:15 AM38 °FClear.13 mph64%30.62 "Hg10 mi
11:55 PM
Wed, Nov 25
38 °FClear.7 mph64%30.63 "Hg10 mi
11:15 PM38 °FClear.12 mph63%30.62 "Hg10 mi
10:55 PM38 °FClear.8 mph61%30.61 "Hg10 mi
9:55 PM38 °FClear.8 mph63%30.61 "Hg10 mi
9:15 PM38 °FClear.12 mph61%30.61 "Hg10 mi
8:55 PM39 °FClear.10 mph60%30.60 "Hg10 mi
8:35 PM39 °FClear.15 mph59%30.59 "Hg10 mi
8:15 PM39 °FClear.13 mph60%30.59 "Hg10 mi
7:35 PM39 °FClear.13 mph62%30.59 "Hg10 mi
6:35 PM39 °FClear.10 mph60%30.59 "Hg10 mi
6:15 PM40 °FClear.10 mph60%30.58 "Hg10 mi
5:55 PM40 °FClear.7 mph59%30.58 "Hg10 mi
5:35 PM40 °FClear.No wind58%30.58 "Hg10 mi
5:15 PM40 °FClear.No wind57%30.57 "Hg10 mi
4:55 PM41 °FSunny.3 mph54%30.56 "Hg10 mi
4:35 PM42 °FSunny.5 mph53%30.55 "Hg10 mi
3:55 PM44 °FSunny.5 mph52%30.54 "Hg10 mi
3:35 PM44 °FSunny.No wind52%30.54 "Hg10 mi
3:15 PM45 °FSunny.3 mph50%30.54 "Hg10 mi
2:55 PM44 °FSunny.No wind51%30.54 "Hg10 mi
2:35 PM44 °FSunny.6 mph50%30.54 "Hg10 mi
2:15 PM44 °FSunny.6 mph50%30.54 "Hg10 mi
1:55 PM45 °FSunny.8 mph48%30.54 "Hg3 mi
1:35 PM44 °FSunny.9 mph48%30.54 "Hg10 mi
1:15 PM44 °FSunny.9 mph49%30.55 "Hg10 mi
Weather by CustomWeather, © 2015

See weather overviewHow to use our weather pages